Cleveland Burke, OH

8:16 AM EST on February 23, 2018 (GMT -0500)
Burke Lakefront

Weather History for KBKL - May, 2013

Change the Weather History Date:

Wednesday, May 22, 2013

  Actual Average Record
Temperature  
Mean Temperature 76 °F -  
Max Temperature 87 °F 65 °F 89 °F (2004)
Min Temperature 66 °F 51 °F 39 °F (2002)
Cooling Degree Days 11    
Growing Degree Days 26 (Base 50)    
Moisture  
Dew Point 61 °F    
Average Humidity 62    
Maximum Humidity 88    
Minimum Humidity 40    
Precipitation  
Precipitation 0.50 in - - ()
Sea Level Pressure  
Sea Level Pressure 29.73 in    
Wind  
Wind Speed 13 mph (SSW)    
Max Wind Speed 29 mph    
Max Gust Speed 39 mph    
Visibility 9 miles    
Events Rain , Thunderstorm    
Averages and records for this station are not official NWS values.
T = Trace of Precipitation, MM = Missing Value Source: NWS Daily Summary

Daily Weather History Graph

Daily Weather History Graph

Search for Another Location

Airport or City:

Trip Planner

Search our weather history database for the weather conditions in past years. The results will help you decide how hot, cold, wet, or windy it might be!

Date:

Astronomy

May. 22, 2013 Rise Set
Actual Time 6:01 AM EDT 8:46 PM EDT
Civil Twilight 5:28 AM EDT 9:18 PM EDT
Nautical Twilight 4:48 AM EDT 9:59 PM EDT
Astronomical Twilight 4:01 AM EDT 10:46 PM EDT
Moon 6:05 PM EDT (5/22) 4:06 AM EDT (5/22)
Length of Visible Light 15h 49m
Length of Day
14h 44m
Waxing Gibbous, 91% of the Moon is Illuminated
May 22
Waxing Gibbous
May 25
Full
May 31
Last Quarter
Jun 8
New
Jun 16
First Quarter

Hourly Weather History & Observations

Time (EDT) Temp. Heat Index Dew Point Humidity Pressure Visibility Wind Dir Wind Speed Gust Speed Precip Events Conditions
12:53 AM 78.1 °F - 59.0 °F 52% 29.77 in 10.0 mi South 9.2 mph - N/A   Clear
1:53 AM 75.9 °F - 61.0 °F 60% 29.77 in 10.0 mi South 10.4 mph - N/A   Clear
2:53 AM 75.9 °F - 61.0 °F 60% 29.76 in 10.0 mi SSW 8.1 mph - N/A   Clear
3:53 AM 75.0 °F - 62.1 °F 64% 29.76 in 10.0 mi South 10.4 mph - N/A   Mostly Cloudy
4:53 AM 73.9 °F - 62.1 °F 66% 29.76 in 10.0 mi South 10.4 mph - N/A   Scattered Clouds
5:53 AM 73.0 °F - 61.0 °F 66% 29.77 in 10.0 mi SSW 11.5 mph - N/A   Clear
6:53 AM 72.0 °F - 59.0 °F 64% 29.79 in 10.0 mi South 10.4 mph - N/A   Partly Cloudy
7:53 AM 73.0 °F - 60.1 °F 64% 29.79 in 10.0 mi South 11.5 mph - N/A   Scattered Clouds
8:53 AM 73.0 °F - 59.0 °F 61% 29.79 in 10.0 mi SSW 13.8 mph 20.7 mph N/A   Mostly Cloudy
9:53 AM 75.0 °F - 61.0 °F 62% 29.79 in 10.0 mi South 10.4 mph 19.6 mph N/A   Mostly Cloudy
10:53 AM 79.0 °F - 61.0 °F 54% 29.77 in 10.0 mi South 10.4 mph - N/A   Clear
11:53 AM 82.9 °F 83.2 °F 60.1 °F 46% 29.75 in 10.0 mi SSW 9.2 mph 21.9 mph N/A   Clear
12:53 PM 84.9 °F 84.8 °F 60.1 °F 43% 29.73 in 10.0 mi SSW 16.1 mph 26.5 mph N/A   Partly Cloudy
1:53 PM 86.0 °F 85.7 °F 60.1 °F 41% 29.70 in 10.0 mi SSW 13.8 mph 27.6 mph N/A   Partly Cloudy
2:53 PM 86.0 °F 85.4 °F 59.0 °F 40% 29.70 in 10.0 mi SSW 23.0 mph 38.0 mph N/A   Partly Cloudy
3:53 PM 82.9 °F 82.8 °F 59.0 °F 44% 29.69 in 10.0 mi SSW 20.7 mph 33.4 mph N/A   Partly Cloudy
4:53 PM 84.0 °F 83.5 °F 57.9 °F 41% 29.67 in 10.0 mi SSW 12.7 mph 29.9 mph N/A   Clear
5:53 PM 82.9 °F 82.6 °F 57.9 °F 42% 29.66 in 10.0 mi SSW 21.9 mph 31.1 mph N/A   Scattered Clouds
6:53 PM 82.9 °F 82.8 °F 59.0 °F 44% 29.67 in 10.0 mi SSW 19.6 mph 24.2 mph N/A   Partly Cloudy
7:53 PM 80.1 °F 80.6 °F 57.9 °F 47% 29.69 in 10.0 mi SSW 21.9 mph 25.3 mph N/A   Clear
8:53 PM 72.0 °F - 61.0 °F 68% 29.70 in 10.0 mi West 19.6 mph 23.0 mph 0.00 in Rain Light Rain
9:08 PM 69.8 °F - 62.6 °F 78% 29.71 in 10.0 mi West 10.4 mph - 0.00 in   Mostly Cloudy
9:43 PM 68.0 °F - 62.6 °F 83% 29.74 in 1.8 mi SW 28.8 mph 39.1 mph 0.15 in Rain Heavy Rain
9:53 PM 66.9 °F - 61.0 °F 81% 29.72 in 1.2 mi South 16.1 mph 38.0 mph 0.24 in Rain Heavy Rain
9:57 PM 68.0 °F - 60.8 °F 78% 29.73 in 3.0 mi South 11.5 mph 24.2 mph 0.03 in Rain Light Rain
10:53 PM 70.0 °F - 64.9 °F 84% 29.72 in 10.0 mi South 10.4 mph 20.7 mph 0.23 in   Overcast
11:12 PM 69.8 °F - 64.4 °F 83% 29.73 in 6.0 mi South 18.4 mph 26.5 mph 0.01 in Rain , Thunderstorm Thunderstorms and Rain
11:39 PM 66.2 °F - 62.6 °F 88% 29.73 in 10.0 mi SSE 11.5 mph - 0.03 in Rain Light Rain
11:53 PM 66.9 °F - 62.1 °F 84% 29.72 in 10.0 mi SSE 11.5 mph - 0.03 in   Overcast